Weather in Volsk

Russia / Saratov Oblast     52°02′45″N   47°23′14″E
temp.,
°C
wind,
m/s
gust,
m/s
humid.,
%
clouds,
%
prec.,
mm/h
press.,
hPa
HPBL,
m
25 july, sun
sun2501:00+16n346780 0.0 101450
04:00+15n337614 0.0 101644
07:00+16n35735 0.0 1018245
10:00+21ne44524 0.0 10191147
13:00+23ne434016 0.0 10201991
16:00+23ne233999 0.0 10201916
19:00+21n345099 0.0 1021236
22:00+19n235197 0.0 102148
26 july, mon
mon2601:00+17nne24528 0.0 102289
04:00+16n224923 0.0 102325
07:00+16nne235362 0.0 1024125
10:00+21ene333919 0.0 1025549
13:00+24ne133113 0.0 10242516
16:00+25n343050 0.0 10232636
19:00+23n354010 0.0 1023396
22:00+18n22532 0.0 102313
27 july, tue
tue2701:00+16n11559 0.0 102311
04:00+15wnw115742 0.0 102310
07:00+18wnw12565 0.0 102377
10:00+23nw34408 0.0 1022899
13:00+26nw453390 0.0 10202741
16:00+27nw4532100 0.0 10192959
19:00+24nw464312 0.0 1019458
22:00+19nw335675 0.0 101926
28 july, wed
wed2801:00+18nw33613 0.0 101832
04:00+17nw33673 0.0 101830
07:00+19nnw23635 0.0 1018103
10:00+24nw454684 0.0 1018735
13:00+28nnw463763 0.0 10162630
16:00+26nnw464192 0.0 10161300
19:00+27n12424 0.0 1015320
22:00+22wsw1151100 0.0 101511
29 july, thu
thu2901:00+20s1156100 0.0 101411
04:00+19w336188 0.0 101425
07:00+21ssw2357100 0.0 101395
10:00+21wnw2356100 0.0 1013100
13:00+23s2454100 0.0 1012202
16:00+24s4945100 0.0 1010584
19:00+23wsw5115725 0.2 1009443
22:00+20sw4127392 0.8 1009326